period_start,C,m1,H,J0,J1,J2,J3,J4,J5,JA,JB,JC,JD,JJ,JK,JN,#
2014-07-27 00:01:22,0.01,0.43,0.00,25.68,29.17,31.51,9.46,37.64,1017.24,2033.02,3254.02,3192.15,3463.00,500.25,492.38,38.46,0000 0000 0000 0000 000000
2014-07-27 00:06:24,0.00,0.43,0.00,25.72,29.20,31.54,9.49,37.63,1017.14,2033.00,3253.99,3192.01,3462.97,500.28,492.89,38.50,0000 0000 0000 0000 000000
2014-07-27 00:11:25,0.03,0.43,0.00,25.75,29.23,31.56,9.50,37.66,1017.14,2033.00,3253.53,3191.95,3462.32,500.32,492.59,38.54,0000 0000 0000 0000 000000
2014-07-27 00:16:26,0.02,0.43,0.00,25.80,29.26,31.59,9.44,37.58,1017.13,2032.99,3253.02,3191.31,3462.01,499.94,492.23,38.58,0000 0000 0000 0000 000000
2014-07-27 00:21:27,0.00,0.43,0.00,25.83,29.29,31.62,9.41,37.78,1017.11,2032.99,3252.99,3191.03,3461.98,499.78,492.05,38.62,0000 0000 0000 0000 000000
2014-07-27 00:26:28,-0.00,0.43,0.00,25.87,29.31,31.64,9.38,37.76,1017.11,2032.94,3252.98,3191.01,3461.74,500.03,492.24,38.67,0000 0000 0000 0000 000000
2014-07-27 00:31:29,-0.04,0.43,0.00,25.87,29.34,31.67,9.53,37.67,1017.11,2032.41,3252.61,3190.93,3461.05,500.02,492.10,38.71,0000 0000 0000 0000 000000
2014-07-27 00:36:30,0.00,0.43,0.00,25.87,29.38,31.70,9.56,37.61,1017.11,2032.06,3252.06,3190.29,3460.98,500.29,492.48,38.75,0000 0000 0000 0000 000000
2014-07-27 00:41:31,0.01,0.43,0.00,25.89,29.42,31.74,9.41,37.54,1017.11,2032.00,3251.96,3190.00,3460.32,499.66,491.88,38.79,0000 0000 0000 0000 000000
2014-07-27 00:46:32,0.03,0.43,0.00,25.94,29.47,31.79,9.50,37.60,1017.11,2031.99,3251.47,3189.76,3459.99,500.04,492.25,38.83,0000 0000 0000 0000 000000
2014-07-27 00:51:33,0.02,0.43,0.00,26.02,29.52,31.84,9.34,37.62,1017.11,2031.91,3251.01,3189.06,3459.31,499.80,491.65,38.87,0000 0000 0000 0000 000000
2014-07-27 00:56:34,-0.05,0.43,0.00,26.07,29.58,31.89,9.42,37.63,1017.11,2031.41,3250.59,3188.84,3458.94,499.86,491.62,38.92,0000 0000 0000 0000 000000
2014-07-27 01:01:35,0.02,0.43,0.00,26.11,29.63,31.95,9.43,37.40,1017.11,2031.01,3250.01,3188.07,3458.14,500.30,491.79,38.96,0000 0000 0000 0000 000000
2014-07-27 01:06:36,0.00,0.43,0.00,26.15,29.68,31.99,9.43,37.33,1017.11,2030.99,3249.84,3187.94,3457.94,499.78,491.49,39.00,0000 0000 0000 0000 000000
2014-07-27 01:11:37,0.03,0.43,0.00,26.18,29.74,32.05,9.39,37.42,1017.11,2030.86,3249.10,3187.26,3457.24,499.69,491.29,39.04,0000 0000 0000 0000 000000
2014-07-27 01:16:38,-0.06,0.43,0.00,26.22,29.78,32.09,9.48,37.43,1017.11,2030.15,3248.84,3186.94,3456.85,500.00,491.69,39.08,0000 0000 0000 0000 000000
2014-07-27 01:21:40,0.04,0.43,0.00,26.29,29.84,32.14,9.50,37.48,1017.11,2030.00,3248.11,3186.23,3456.08,499.94,491.71,39.12,0000 0000 0000 0000 000000
2014-07-27 01:26:41,0.00,0.43,0.00,26.32,29.89,32.19,9.46,37.65,1017.11,2029.98,3247.93,3185.97,3455.88,499.96,491.33,39.16,0000 0000 0000 0000 000000
2014-07-27 01:31:42,0.03,0.43,0.00,26.37,29.95,32.25,9.42,37.83,1017.11,2029.80,3247.19,3185.35,3455.14,500.17,491.52,39.21,0000 0000 0000 0000 000000
2014-07-27 01:36:43,-0.07,0.43,0.00,26.42,30.00,32.30,9.43,37.67,1017.11,2029.08,3246.97,3185.00,3454.90,500.00,491.23,39.25,0000 0000 0000 0000 000000
2014-07-27 01:41:44,0.05,0.43,0.00,26.46,30.05,32.35,9.41,37.52,1017.12,2029.00,3246.38,3184.55,3454.17,500.07,491.20,39.29,0000 0000 0000 0000 000000
2014-07-27 01:46:45,0.01,0.43,0.00,26.50,30.10,32.39,9.38,37.54,1017.12,2029.00,3246.00,3184.02,3453.98,499.90,490.92,39.33,0000 0000 0000 0000 000000
2014-07-27 01:51:47,0.02,0.43,0.00,26.57,30.15,32.44,9.34,37.86,1017.12,2028.87,3245.44,3183.84,3453.25,500.00,490.94,39.37,0000 0000 0000 0000 000000
2014-07-27 01:56:48,-0.04,0.43,0.00,26.60,30.21,32.49,9.35,37.55,1017.12,2028.34,3245.00,3183.06,3452.90,499.80,490.78,39.41,0000 0000 0000 0000 000000
2014-07-27 02:01:49,0.01,0.43,0.00,26.65,30.25,32.54,9.46,37.63,1017.12,2028.02,3244.66,3182.93,3452.16,500.60,491.56,39.46,0000 0000 0000 0000 000000
2014-07-27 02:06:50,0.03,0.43,0.00,26.68,30.30,32.59,9.53,37.67,1017.12,2028.00,3244.05,3182.23,3451.98,500.35,491.24,39.50,0000 0000 0000 0000 000000
2014-07-27 02:11:51,0.02,0.43,0.00,26.71,30.35,32.63,9.38,37.85,1017.14,2027.98,3243.86,3181.99,3451.37,499.60,490.25,39.54,0000 0000 0000 0000 000000
2014-07-27 02:16:52,0.00,0.43,0.00,26.76,30.40,32.67,9.37,37.75,1017.16,2027.80,3243.12,3181.61,3451.01,499.56,490.29,39.58,0000 0000 0000 0000 000000
2014-07-27 02:21:53,-0.04,0.43,0.00,26.80,30.44,32.72,9.38,37.83,1017.14,2027.21,3242.93,3181.06,3450.55,499.56,490.32,39.62,0000 0000 0000 0000 000000
2014-07-27 02:26:54,0.02,0.43,0.00,26.84,30.49,32.76,9.46,37.75,1017.12,2027.00,3242.18,3180.85,3450.01,500.06,490.73,39.66,0000 0000 0000 0000 000000
2014-07-27 02:31:55,0.03,0.43,0.00,26.89,30.54,32.80,9.43,37.83,1017.12,2026.99,3241.98,3180.13,3449.50,499.67,490.03,39.70,0000 0000 0000 0000 000000
2014-07-27 02:36:56,0.01,0.44,0.00,26.92,30.58,32.85,9.37,37.72,1017.12,2026.92,3241.61,3179.99,3449.01,499.87,490.26,39.75,0000 0000 0000 0000 000000
2014-07-27 02:41:57,-0.04,0.43,0.00,26.98,30.63,32.90,9.47,37.77,1017.11,2026.31,3241.02,3179.37,3448.54,500.71,490.91,39.79,0000 0000 0000 0000 000000
2014-07-27 02:46:58,0.00,0.43,0.00,27.04,30.67,32.94,9.45,37.95,1017.11,2026.01,3240.82,3178.99,3448.02,500.01,490.33,39.83,0000 0000 0000 0000 000000
2014-07-27 02:51:59,0.05,0.44,0.00,27.07,30.72,32.98,9.31,38.11,1017.10,2026.00,3240.08,3178.46,3447.60,499.99,490.28,39.87,0000 0000 0000 0000 000000
2014-07-27 02:57:00,0.00,0.44,0.00,27.11,30.76,33.02,9.43,38.00,1017.04,2025.95,3239.90,3178.02,3447.03,500.56,490.74,39.91,0000 0000 0000 0000 000000
2014-07-27 03:02:01,-0.02,0.44,0.00,27.16,30.81,33.06,9.41,38.01,1016.98,2025.60,3239.16,3177.87,3446.80,500.34,490.32,39.95,0000 0000 0000 0000 000000
2014-07-27 03:07:02,-0.01,0.44,0.00,27.20,30.85,33.10,9.39,38.21,1016.96,2025.16,3238.99,3177.25,3446.11,499.99,490.05,39.99,0000 0000 0000 0000 000000
2014-07-27 03:12:03,0.01,0.44,0.00,27.21,30.89,33.14,9.53,38.21,1016.89,2025.02,3238.57,3177.00,3445.97,500.04,489.90,40.04,0000 0000 0000 0000 000000
2014-07-27 03:17:04,0.03,0.44,0.00,27.24,30.94,33.18,9.44,38.09,1016.71,2025.00,3238.02,3176.67,3445.30,500.41,490.00,40.08,0000 0000 0000 0000 000000
2014-07-27 03:22:06,0.01,0.44,0.00,27.29,30.98,33.21,9.42,38.27,1016.69,2024.97,3237.89,3176.07,3445.01,500.29,489.97,40.12,0000 0000 0000 0000 000000
2014-07-27 03:27:07,0.00,0.44,0.00,27.33,31.01,33.26,9.47,38.26,1016.73,2024.88,3237.22,3175.99,3444.84,499.98,489.57,40.16,0000 0000 0000 0000 000000
2014-07-27 03:32:08,-0.04,0.44,0.00,27.36,31.06,33.30,9.38,38.18,1016.85,2024.26,3237.00,3175.61,3444.12,500.13,489.79,40.20,0000 0000 0000 0000 000000
2014-07-27 03:37:09,0.01,0.44,0.00,27.39,31.10,33.33,9.40,38.12,1016.92,2024.03,3236.55,3175.03,3443.97,499.84,489.41,40.24,0000 0000 0000 0000 000000
2014-07-27 03:42:10,0.02,0.44,0.00,27.43,31.13,33.37,9.39,38.17,1016.69,2024.00,3236.05,3174.97,3443.28,500.03,489.52,40.29,0000 0000 0000 0000 000000
2014-07-27 03:47:11,0.02,0.44,0.00,27.46,31.17,33.41,9.36,38.13,1016.65,2024.00,3235.95,3174.42,3443.00,500.11,489.45,40.33,0000 0000 0000 0000 000000
2014-07-27 03:52:12,0.02,0.44,0.00,27.47,31.21,33.44,9.45,38.08,1016.64,2023.98,3235.35,3174.02,3442.85,500.18,489.47,40.37,0000 0000 0000 0000 000000
2014-07-27 03:57:13,-0.00,0.44,0.00,27.50,31.25,33.48,9.42,37.93,1016.65,2023.88,3235.05,3173.99,3442.21,500.00,489.33,40.41,0000 0000 0000 0000 000000
2014-07-27 04:02:13,-0.02,0.44,0.00,27.54,31.29,33.51,9.47,38.03,1016.64,2023.59,3234.96,3173.61,3442.00,500.67,489.86,40.45,0000 0000 0000 0000 000000
2014-07-27 04:07:15,0.01,0.44,0.00,27.58,31.32,33.55,9.48,37.92,1016.63,2023.30,3234.28,3173.04,3441.87,499.96,489.03,40.49,0000 0000 0000 0000 000000
2014-07-27 04:12:16,-0.01,0.44,0.00,27.60,31.36,33.58,9.43,38.15,1016.63,2023.06,3234.02,3172.98,3441.19,500.17,489.20,40.54,0000 0000 0000 0000 000000
2014-07-27 04:17:17,0.01,0.44,0.00,27.66,31.39,33.62,9.40,37.91,1016.63,2023.00,3233.94,3172.80,3441.00,500.13,489.19,40.58,0000 0000 0000 0000 000000
2014-07-27 04:22:19,0.04,0.44,0.00,27.69,31.42,33.65,9.45,37.92,1016.62,2023.00,3233.34,3172.10,3440.73,500.14,489.10,40.62,0000 0000 0000 0000 000000
2014-07-27 04:27:20,0.01,0.44,0.00,27.70,31.46,33.68,9.39,37.94,1016.62,2022.98,3233.01,3172.00,3440.08,499.89,488.81,40.66,0000 0000 0000 0000 000000
2014-07-27 04:32:21,-0.01,0.44,0.00,27.72,31.49,33.70,9.40,38.08,1016.62,2022.90,3232.97,3171.90,3440.00,499.67,488.58,40.70,0000 0000 0000 0000 000000
2014-07-27 04:37:22,-0.03,0.44,0.00,27.75,31.52,33.74,9.37,38.02,1016.62,2022.36,3232.57,3171.16,3439.68,500.11,489.03,40.74,0000 0000 0000 0000 000000
2014-07-27 04:42:23,0.01,0.44,0.00,27.78,31.56,33.78,9.30,37.98,1016.62,2022.12,3232.07,3171.02,3439.16,499.55,488.38,40.78,0000 0000 0000 0000 000000
2014-07-27 04:47:24,-0.00,0.44,0.00,27.81,31.59,33.81,9.47,37.95,1016.58,2022.00,3231.98,3170.93,3438.99,500.19,488.96,40.83,0000 0000 0000 0000 000000
2014-07-27 04:52:25,0.05,0.44,0.00,27.85,31.62,33.84,9.39,37.88,1016.50,2021.99,3231.41,3170.25,3438.42,500.30,488.98,40.87,0000 0000 0000 0000 000000
2014-07-27 04:57:26,0.00,0.44,0.00,27.87,31.65,33.87,9.40,37.92,1016.36,2021.97,3231.04,3170.01,3438.02,500.28,488.81,40.91,0000 0000 0000 0000 000000
2014-07-27 05:02:27,-0.00,0.44,0.00,27.89,31.69,33.90,9.34,37.94,1016.47,2021.91,3231.00,3169.99,3437.98,499.82,488.37,40.95,0000 0000 0000 0000 000000
2014-07-27 05:07:28,-0.03,0.44,0.00,27.91,31.71,33.94,9.33,38.12,1016.35,2021.41,3230.76,3169.61,3437.51,500.09,488.65,40.99,0000 0000 0000 0000 000000
2014-07-27 05:12:30,0.01,0.44,0.00,27.95,31.75,33.96,9.40,38.16,1016.23,2021.12,3230.25,3169.15,3437.07,499.93,488.19,41.03,0000 0000 0000 0000 000000
2014-07-27 05:17:31,-0.00,0.44,0.00,27.98,31.77,33.99,9.34,38.02,1016.48,2021.02,3230.01,3169.00,3437.00,499.71,488.09,41.08,0000 0000 0000 0000 000000
2014-07-27 05:22:32,0.00,0.44,0.00,27.98,31.80,34.02,9.46,38.16,1016.45,2021.00,3230.00,3168.98,3436.82,500.22,488.61,41.12,0000 0000 0000 0000 000000
2014-07-27 05:27:33,0.03,0.44,0.00,28.00,31.83,34.05,9.32,38.04,1016.32,2021.00,3229.73,3168.73,3436.22,499.68,488.11,41.16,0000 0000 0000 0000 000000
2014-07-27 05:32:34,0.01,0.44,0.00,28.03,31.86,34.08,9.45,38.10,1016.28,2020.95,3229.14,3168.12,3436.00,500.08,488.36,41.20,0000 0000 0000 0000 000000
2014-07-27 05:37:35,-0.01,0.44,0.00,28.03,31.89,34.11,9.32,38.05,1016.17,2020.81,3229.00,3168.00,3435.96,499.67,487.93,41.24,0000 0000 0000 0000 000000
2014-07-27 05:42:36,-0.04,0.44,0.00,28.04,31.91,34.14,9.37,38.17,1016.18,2020.42,3228.96,3167.98,3435.39,499.77,487.78,41.28,0000 0000 0000 0000 000000
2014-07-27 05:47:38,0.01,0.44,0.00,28.07,31.94,34.16,9.38,38.12,1016.29,2020.11,3228.48,3167.74,3435.03,499.97,488.16,41.33,0000 0000 0000 0000 000000
2014-07-27 05:52:39,0.02,0.44,0.00,28.10,31.96,34.18,9.32,37.98,1016.19,2020.03,3228.04,3167.10,3435.00,499.60,487.78,41.37,0000 0000 0000 0000 000000
2014-07-27 05:57:40,0.00,0.44,0.00,28.11,31.99,34.21,9.41,38.05,1016.14,2020.00,3228.00,3167.01,3434.87,499.57,487.75,41.41,0000 0000 0000 0000 000000
2014-07-27 06:02:41,0.01,0.44,0.00,28.15,32.01,34.22,9.29,38.02,1016.13,2020.00,3227.96,3166.98,3434.18,499.42,487.41,41.45,0000 0000 0000 0000 000000
2014-07-27 06:07:42,0.02,0.44,0.00,28.16,32.04,34.25,9.41,38.24,1016.13,2020.00,3227.53,3166.73,3434.01,500.40,488.31,41.49,0000 0000 0000 0000 000000
2014-07-27 06:12:43,0.02,0.44,0.00,28.15,32.06,34.28,9.37,38.11,1016.13,2019.99,3227.05,3166.18,3433.98,499.91,487.90,41.53,0000 0000 0000 0000 000000
2014-07-27 06:17:44,0.01,0.45,0.00,28.14,32.08,34.31,9.42,38.03,1016.13,2019.95,3226.99,3166.00,3433.56,499.78,487.76,41.57,0000 0000 0000 0000 000000
2014-07-27 06:22:45,0.01,0.45,0.00,28.07,32.10,34.34,9.33,37.88,1016.09,2019.82,3226.47,3165.92,3433.03,499.97,488.12,41.62,0000 0000 0000 0000 000000
2014-07-27 06:27:46,0.01,0.45,0.00,28.03,32.12,34.36,9.38,37.99,1016.00,2019.83,3226.11,3165.84,3433.01,499.76,487.87,41.66,0000 0000 0000 0000 000000
2014-07-27 06:32:47,-0.01,0.45,0.00,28.01,32.12,34.39,9.33,38.07,1015.88,2019.58,3226.00,3165.46,3432.99,499.90,488.07,41.70,0000 0000 0000 0000 000000
2014-07-27 06:37:48,0.00,0.45,0.00,28.02,32.15,34.39,9.43,37.97,1015.75,2019.52,3226.00,3165.16,3432.93,500.27,488.28,41.74,0000 0000 0000 0000 000000
2014-07-27 06:42:49,-0.01,0.45,0.00,28.05,32.15,34.39,9.34,37.92,1015.70,2019.34,3225.98,3165.02,3432.48,499.99,487.83,41.78,0000 0000 0000 0000 000000
2014-07-27 06:47:50,-0.00,0.44,0.00,28.03,32.16,34.39,9.35,37.97,1015.67,2019.11,3225.74,3165.00,3432.06,499.79,487.63,41.82,0000 0000 0000 0000 000000
2014-07-27 06:52:51,0.01,0.45,0.00,28.06,32.17,34.40,9.43,38.02,1015.65,2019.07,3225.34,3164.99,3432.01,499.96,487.85,41.86,0000 0000 0000 0000 000000
2014-07-27 06:57:51,0.01,0.45,0.00,28.07,32.17,34.40,9.30,37.92,1015.65,2019.01,3225.00,3164.88,3431.99,499.46,487.41,41.91,0000 0000 0000 0000 000000
2014-07-27 07:02:52,0.01,0.45,0.00,28.10,32.20,34.41,9.41,37.85,1015.65,2019.00,3225.00,3164.62,3431.91,500.28,487.96,41.95,0000 0000 0000 0000 000000
2014-07-27 07:07:53,0.02,0.45,0.00,28.12,32.20,34.41,9.45,38.01,1015.64,2019.00,3224.97,3164.20,3431.51,499.96,487.83,41.99,0000 0000 0000 0000 000000
2014-07-27 07:12:55,0.01,0.45,0.00,28.12,32.20,34.40,9.39,38.09,1015.64,2019.00,3224.74,3164.04,3431.09,500.40,488.26,42.03,0000 0000 0000 0000 000000
2014-07-27 07:17:56,0.01,0.45,0.00,28.15,32.22,34.41,9.31,37.88,1015.64,2019.00,3224.13,3164.00,3431.00,500.13,487.80,42.07,0000 0000 0000 0000 000000
2014-07-27 07:22:57,0.00,0.45,0.00,28.17,32.22,34.43,9.42,37.89,1015.61,2019.00,3224.00,3163.98,3430.95,500.40,488.12,42.11,0000 0000 0000 0000 000000
2014-07-27 07:27:58,0.00,0.45,0.00,28.21,32.23,34.45,9.30,37.87,1015.61,2019.00,3224.00,3163.97,3430.88,499.63,487.30,42.16,0000 0000 0000 0000 000000
2014-07-27 07:32:59,0.01,0.45,0.00,28.22,32.25,34.44,9.30,37.88,1015.53,2019.00,3223.93,3163.87,3430.52,499.79,487.50,42.20,0000 0000 0000 0000 000000
2014-07-27 07:38:00,0.04,0.45,0.00,28.22,32.25,34.45,9.34,38.02,1015.52,2018.98,3223.51,3163.41,3430.09,499.95,487.24,42.24,0000 0000 0000 0000 000000
2014-07-27 07:43:01,0.00,0.45,0.00,28.24,32.26,34.46,9.41,38.20,1015.58,2018.97,3223.07,3163.06,3430.00,499.90,487.49,42.28,0000 0000 0000 0000 000000
2014-07-27 07:48:02,-0.01,0.45,0.00,28.25,32.27,34.47,9.35,38.13,1015.49,2018.89,3223.00,3163.00,3429.97,499.97,487.40,42.32,0000 0000 0000 0000 000000
2014-07-27 07:53:03,-0.00,0.45,0.00,28.26,32.28,34.49,9.32,38.06,1015.32,2018.86,3223.00,3163.00,3429.86,500.00,487.39,42.36,0000 0000 0000 0000 000000
2014-07-27 07:58:04,-0.00,0.45,0.00,28.30,32.30,34.50,9.37,38.05,1015.41,2018.73,3222.90,3163.00,3429.45,499.82,487.08,42.41,0000 0000 0000 0000 000000
2014-07-27 08:03:05,0.01,0.45,0.00,28.31,32.30,34.51,9.42,38.01,1015.62,2018.56,3222.48,3162.94,3429.05,499.86,487.36,42.45,0000 0000 0000 0000 000000
2014-07-27 08:08:06,0.01,0.45,0.00,28.33,32.32,34.51,9.35,38.02,1015.64,2018.65,3222.22,3162.87,3429.02,500.36,487.78,42.49,0000 0000 0000 0000 000000
2014-07-27 08:13:07,-0.01,0.45,0.00,28.35,32.32,34.52,9.31,37.89,1015.64,2018.48,3222.03,3162.46,3429.00,500.02,487.34,42.53,0000 0000 0000 0000 000000
2014-07-27 08:18:08,-0.02,0.45,0.00,28.37,32.35,34.53,9.31,37.51,1015.64,2018.19,3222.00,3162.07,3428.97,499.56,486.93,42.57,0000 0000 0000 0000 000000
2014-07-27 08:23:09,-0.01,0.45,0.00,28.40,32.35,34.55,9.24,37.69,1015.64,2018.08,3221.99,3162.02,3428.88,499.92,487.32,42.61,0000 0000 0000 0000 000000
2014-07-27 08:28:10,0.01,0.45,0.00,28.43,32.37,34.57,9.42,37.88,1015.64,2018.05,3221.84,3162.00,3428.28,500.17,487.47,42.65,0000 0000 0000 0000 000000
2014-07-27 08:33:11,0.01,0.45,0.00,28.47,32.39,34.57,9.31,37.73,1015.64,2018.03,3221.27,3161.98,3428.04,499.73,487.02,42.70,0000 0000 0000 0000 000000
2014-07-27 08:38:12,0.00,0.45,0.00,28.49,32.40,34.59,9.47,37.88,1015.64,2018.01,3221.02,3161.85,3427.99,500.57,487.63,42.74,0000 0000 0000 0000 000000
2014-07-27 08:43:13,0.01,0.45,0.00,28.53,32.42,34.60,9.29,37.71,1015.64,2018.00,3220.99,3161.35,3427.94,500.00,486.97,42.78,0000 0000 0000 0000 000000
2014-07-27 08:48:14,0.01,0.45,0.00,28.56,32.44,34.62,9.41,37.89,1015.63,2018.00,3220.97,3161.05,3427.61,499.92,487.04,42.82,0000 0000 0000 0000 000000
2014-07-27 08:53:15,0.01,0.45,0.00,28.57,32.46,34.65,9.34,37.77,1015.59,2018.00,3220.64,3161.00,3427.09,500.14,487.18,42.86,0000 0000 0000 0000 000000
2014-07-27 08:58:16,0.00,0.45,0.00,28.59,32.48,34.67,9.20,37.67,1015.55,2017.98,3220.07,3160.99,3427.00,499.93,486.91,42.90,0000 0000 0000 0000 000000
2014-07-27 09:03:17,0.00,0.45,0.00,28.62,32.50,34.68,9.44,37.83,1015.42,2017.95,3220.00,3160.79,3426.93,500.54,487.31,42.95,0000 0000 0000 0000 000000
2014-07-27 09:08:18,0.02,0.45,0.00,28.65,32.52,34.71,9.43,37.87,1015.24,2017.86,3219.98,3160.15,3426.36,500.42,487.03,42.99,0000 0000 0000 0000 000000
2014-07-27 09:13:19,-0.00,0.45,0.00,28.68,32.55,34.73,9.31,37.83,1015.31,2017.73,3219.66,3160.02,3426.06,499.91,486.61,43.03,0000 0000 0000 0000 000000
2014-07-27 09:18:21,-0.02,0.45,0.00,28.69,32.56,34.75,9.36,37.91,1015.41,2017.51,3219.18,3160.00,3426.00,500.23,487.03,43.07,0000 0000 0000 0000 000000
2014-07-27 09:23:22,-0.03,0.45,0.00,28.71,32.58,34.76,9.29,37.90,1015.18,2017.23,3219.02,3159.99,3425.97,499.97,486.65,43.11,0000 0000 0000 0000 000000
2014-07-27 09:28:23,0.00,0.45,0.00,28.74,32.60,34.79,9.35,38.02,1015.15,2017.14,3219.00,3159.93,3425.76,499.80,486.31,43.15,0000 0000 0000 0000 000000
2014-07-27 09:33:24,0.04,0.45,0.00,28.77,32.62,34.81,9.41,38.04,1015.15,2017.06,3218.74,3159.38,3425.11,500.45,486.87,43.19,0000 0000 0000 0000 000000
2014-07-27 09:38:25,0.01,0.45,0.00,28.78,32.64,34.84,9.27,37.98,1015.16,2017.00,3218.09,3159.02,3425.00,499.82,486.10,43.24,0000 0000 0000 0000 000000
2014-07-27 09:43:26,0.00,0.45,0.00,28.80,32.66,34.85,9.36,37.98,1015.18,2017.00,3218.00,3159.00,3424.95,500.07,486.54,43.28,0000 0000 0000 0000 000000
2014-07-27 09:48:27,0.02,0.46,0.00,28.82,32.68,34.87,9.25,37.88,1015.30,2017.00,3217.95,3158.87,3424.33,499.75,486.33,43.32,0000 0000 0000 0000 000000
2014-07-27 09:53:28,0.02,0.46,0.00,28.86,32.70,34.89,9.33,37.84,1015.50,2016.98,3217.55,3158.43,3424.01,499.60,486.13,43.36,0000 0000 0000 0000 000000
2014-07-27 09:58:28,0.01,0.46,0.00,28.89,32.72,34.91,9.30,37.83,1015.62,2016.90,3217.04,3158.03,3423.99,500.30,487.03,43.40,0000 0000 0000 0000 000000
2014-07-27 10:03:30,-0.02,0.46,0.00,28.90,32.74,34.92,9.40,37.83,1015.64,2016.71,3216.98,3157.98,3423.77,500.25,486.70,43.44,0000 0000 0000 0000 000000
2014-07-27 10:08:30,0.03,0.46,0.00,28.92,32.76,34.95,9.32,37.79,1015.63,2016.55,3216.39,3157.28,3423.02,500.02,486.56,43.49,0000 0000 0000 0000 000000
2014-07-27 10:13:31,-0.01,0.46,0.00,28.96,32.78,34.97,9.33,37.77,1015.64,2016.31,3216.03,3157.02,3422.70,499.70,486.06,43.53,0000 0000 0000 0000 000000
2014-07-27 10:18:32,-0.01,0.46,0.00,28.98,32.80,34.99,9.34,37.92,1015.64,2016.04,3216.00,3157.00,3422.06,500.04,486.48,43.57,0000 0000 0000 0000 000000
2014-07-27 10:23:33,0.01,0.46,0.00,29.00,32.83,35.02,9.31,37.88,1015.64,2016.01,3215.87,3156.87,3422.00,499.97,486.38,43.61,0000 0000 0000 0000 000000
2014-07-27 10:28:34,0.03,0.46,0.00,29.05,32.85,35.05,9.37,37.92,1015.61,2016.00,3215.35,3156.45,3421.90,499.95,486.25,43.65,0000 0000 0000 0000 000000
2014-07-27 10:33:36,0.01,0.46,0.00,29.07,32.87,35.08,9.33,37.91,1015.50,2016.00,3215.03,3156.07,3421.52,500.00,486.38,43.69,0000 0000 0000 0000 000000
2014-07-27 10:38:37,0.00,0.46,0.00,29.09,32.90,35.11,9.26,37.87,1015.26,2016.00,3215.00,3156.00,3421.04,499.60,485.71,43.73,0000 0000 0000 0000 000000
2014-07-27 10:43:38,0.00,0.46,0.00,29.11,32.92,35.15,9.32,37.84,1015.19,2015.99,3214.87,3155.97,3421.00,499.99,485.95,43.78,0000 0000 0000 0000 000000
2014-07-27 10:48:40,0.02,0.46,0.00,29.13,32.95,35.18,9.35,38.02,1015.17,2015.95,3214.27,3155.70,3420.76,500.02,486.17,43.82,0000 0000 0000 0000 000000
2014-07-27 10:53:40,0.02,0.46,0.00,29.16,32.97,35.21,9.34,37.90,1015.17,2015.80,3214.01,3155.10,3420.09,500.04,485.95,43.86,0000 0000 0000 0000 000000
2014-07-27 10:58:41,-0.04,0.46,0.00,29.19,33.00,35.24,9.33,37.88,1015.16,2015.53,3213.97,3155.00,3420.00,499.91,485.62,43.90,0000 0000 0000 0000 000000
2014-07-27 11:03:42,-0.02,0.46,0.00,29.24,33.02,35.28,9.34,37.83,1015.15,2015.15,3213.71,3154.98,3419.88,500.32,486.10,43.94,0000 0000 0000 0000 000000
2014-07-27 11:08:43,0.02,0.46,0.00,29.30,33.05,35.31,9.38,37.98,1015.17,2015.04,3213.13,3154.78,3419.28,500.29,486.02,43.98,0000 0000 0000 0000 000000
2014-07-27 11:13:44,0.02,0.46,0.00,29.34,33.07,35.34,9.30,37.89,1015.16,2015.00,3213.00,3154.11,3419.01,499.87,485.39,44.03,0000 0000 0000 0000 000000
2014-07-27 11:18:44,0.00,0.46,0.00,29.36,33.10,35.37,9.37,37.83,1015.16,2015.00,3212.96,3154.01,3418.99,499.70,485.34,44.07,0000 0000 0000 0000 000000
2014-07-27 11:23:46,0.01,0.46,0.00,29.39,33.12,35.39,9.36,37.90,1015.16,2014.97,3212.62,3153.99,3418.69,500.38,485.84,44.11,0000 0000 0000 0000 000000
2014-07-27 11:28:47,0.02,0.46,0.00,29.41,33.15,35.40,9.29,37.76,1015.15,2014.94,3212.09,3153.91,3418.11,500.15,485.59,44.15,0000 0000 0000 0000 000000
2014-07-27 11:33:48,0.01,0.46,0.00,29.41,33.17,35.42,9.33,37.99,1015.15,2014.87,3212.00,3153.49,3418.00,500.25,485.74,44.19,0000 0000 0000 0000 000000
2014-07-27 11:38:49,-0.00,0.46,0.00,29.41,33.18,35.43,9.29,37.83,1015.12,2014.67,3211.98,3153.04,3417.98,499.76,485.23,44.23,0000 0000 0000 0000 000000
2014-07-27 11:43:50,-0.02,0.46,0.00,29.40,33.20,35.44,9.29,37.90,1015.07,2014.33,3211.62,3153.00,3417.72,499.85,485.21,44.27,0000 0000 0000 0000 000000
2014-07-27 11:48:51,-0.01,0.46,0.00,29.39,33.22,35.45,9.31,37.73,1015.02,2014.04,3211.08,3152.99,3417.10,499.95,485.32,44.32,0000 0000 0000 0000 000000
2014-07-27 11:53:52,0.00,0.46,0.00,29.37,33.22,35.46,9.31,37.82,1014.87,2014.00,3211.00,3152.82,3417.00,499.97,485.65,44.36,0000 0000 0000 0000 000000
2014-07-27 11:58:53,0.01,0.46,0.00,29.34,33.24,35.47,9.32,37.77,1014.76,2014.00,3210.98,3152.46,3416.98,500.21,485.52,44.40,0000 0000 0000 0000 000000
2014-07-27 12:03:54,0.00,0.46,0.00,29.30,33.25,35.48,9.28,37.83,1014.71,2014.00,3210.93,3152.25,3416.97,499.74,485.07,44.44,0000 0000 0000 0000 000000
2014-07-27 12:08:56,0.02,0.46,0.00,29.25,33.25,35.49,9.38,37.84,1014.67,2014.00,3210.57,3152.05,3416.69,500.19,485.68,44.48,0000 0000 0000 0000 000000
2014-07-27 12:13:57,0.01,0.46,0.00,29.16,33.25,35.49,9.34,37.93,1014.67,2014.00,3210.10,3152.00,3416.20,499.94,485.35,44.52,0000 0000 0000 0000 000000
2014-07-27 12:18:58,0.00,0.46,0.00,29.09,33.25,35.49,9.29,37.95,1014.67,2014.00,3210.00,3152.00,3416.01,499.92,485.68,44.57,0000 0000 0000 0000 000000
2014-07-27 12:23:59,0.00,0.46,0.00,29.02,33.25,35.48,9.37,37.91,1014.66,2014.00,3210.00,3151.99,3416.00,499.73,485.74,44.61,0000 0000 0000 0000 000000
2014-07-27 12:29:00,0.00,0.46,0.00,28.96,33.25,35.47,9.34,37.86,1014.66,2014.00,3209.96,3151.98,3416.00,500.00,485.86,44.65,0000 0000 0000 0000 000000
2014-07-27 12:34:01,0.01,0.46,0.00,28.91,33.24,35.46,9.40,37.83,1014.66,2014.00,3209.84,3151.91,3415.99,500.40,486.42,44.69,0000 0000 0000 0000 000000
2014-07-27 12:39:02,0.02,0.46,0.00,28.88,33.22,35.44,9.30,37.77,1014.66,2013.99,3209.34,3151.71,3415.88,499.82,485.98,44.73,0000 0000 0000 0000 000000
2014-07-27 12:44:03,0.02,0.47,0.00,28.84,33.22,35.42,9.37,38.00,1014.64,2013.99,3209.04,3151.36,3415.62,500.07,486.24,44.77,0000 0000 0000 0000 000000
2014-07-27 12:49:04,0.01,0.47,0.00,28.79,33.21,35.42,9.40,37.92,1014.62,2013.99,3209.00,3151.15,3415.25,499.97,486.36,44.82,0000 0000 0000 0000 000000
2014-07-27 12:54:05,0.00,0.47,0.00,28.77,33.20,35.40,9.37,38.02,1014.65,2013.99,3209.00,3151.17,3415.17,500.23,486.40,44.86,0000 0000 0000 0000 000000
2014-07-27 12:59:06,0.00,0.47,0.00,28.73,33.19,35.38,9.35,37.95,1014.64,2013.99,3209.00,3151.09,3415.08,500.19,486.51,44.90,0000 0000 0000 0000 000000